EW9394 Weather Reports


time (UTC)temp
F
wind
direction
speed
knots
gust
knots
rain 1hr
in
rain 24hr
in
rain mn
in
humidity
%
barometer
mb
20260505122214 71 183 3.5 5.2 0.00 0.00 0.00 89 1005.6
20260505121710 71 186 4.3 6.1 0.00 0.00 0.00 89 1006.0
20260505121207 71 196 4.3 5.2 0.00 0.00 0.00 88 1005.8
20260505120703 71 167 3.5 5.2 0.00 0.00 0.00 88 1005.8
20260505120159 71 167 4.3 7.0 0.00 0.00 0.00 88 1005.6
20260505115653 71 197 4.3 6.1 0.00 0.00 0.00 89 1005.7
20260505115151 71 173 6.1 8.7 0.00 0.00 0.00 89 1005.7
20260505114648 71 166 4.3 6.1 0.00 0.00 0.00 88 1005.7
20260505114144 71 150 7.0 7.8 0.00 0.00 0.00 88 1005.7
20260505113640 71 180 4.3 6.1 0.00 0.00 0.00 88 1005.5
20260505113137 71 192 3.5 5.2 0.00 0.00 0.00 88 1005.5
20260505112633 71 190 4.3 5.2 0.00 0.00 0.00 88 1005.4
20260505112132 71 194 1.7 1.7 0.00 0.00 0.00 88 1005.4
20260505111631 71 144 7.8 9.6 0.00 0.00 0.00 88 1005.7
20260505111127 71 192 5.2 7.8 0.00 0.00 0.00 88 1005.6
20260505110624 71 187 4.3 5.2 0.00 0.00 0.00 88 1005.6
20260505110121 71 209 2.6 4.3 0.00 0.00 0.00 88 1005.3
20260505102057 71 183 7.0 8.7 0.00 0.00 0.00 87 1005.5
20260505101555 71 193 7.0 8.7 0.00 0.00 0.00 87 1005.7
20260505101051 71 194 3.5 4.3 0.00 0.00 0.00 87 1005.4
20260505100548 71 153 2.6 2.6 0.00 0.00 0.00 87 1005.6
20260505100045 71 155 2.6 4.3 0.00 0.00 0.00 87 1005.5
20260505095541 71 181 4.3 5.2 0.00 0.00 0.00 87 1005.7
20260505095037 71 180 5.2 7.8 0.00 0.00 0.00 87 1005.7
20260505094534 71 192 7.0 9.6 0.00 0.00 0.00 87 1006.0
20260505094030 71 190 4.3 6.1 0.00 0.00 0.00 87 1005.9
20260505093527 71 191 6.1 8.7 0.00 0.00 0.00 87 1005.9
20260505093024 71 184 2.6 2.6 0.00 0.00 0.00 87 1005.8
20260505092521 71 170 4.3 6.1 0.00 0.00 0.00 87 1006.1
20260505092020 71 145 2.6 4.3 0.00 0.00 0.00 87 1006.0
20260505091516 71 195 3.5 5.2 0.00 0.00 0.00 87 1006.0
20260505091014 71 177 3.5 6.1 0.00 0.00 0.00 87 1006.2
20260505090512 71 219 1.7 2.6 0.00 0.00 0.00 88 1006.1
20260505090010 71 166 3.5 6.1 0.00 0.00 0.00 88 1006.0
20260505085508 71 130 7.0 11.3 0.00 0.00 0.00 88 1006.2
20260505085006 71 206 4.3 7.8 0.00 0.00 0.00 88 1006.2
20260505084503 71 193 2.6 7.8 0.00 0.00 0.00 88 1005.9
20260505084001 71 159 6.1 7.8 0.00 0.00 0.00 88 1006.0
20260505083458 71 211 5.2 6.1 0.00 0.00 0.00 88 1006.0
20260505082954 71 180 3.5 5.2 0.00 0.00 0.00 88 1006.2
20260505082450 71 178 7.0 9.6 0.00 0.00 0.00 88 1006.1
20260505081947 71 190 3.5 4.3 0.00 0.00 0.00 88 1006.3
20260505081444 71 159 3.5 5.2 0.00 0.00 0.00 87 1006.1
20260505080940 71 197 3.5 4.3 0.00 0.00 0.00 87 1006.2
20260505080437 71 179 6.1 8.7 0.00 0.00 0.00 87 1006.1
20260505075932 71 178 4.3 7.0 0.00 0.00 0.00 87 1006.2
20260505075429 71 152 6.1 7.8 0.00 0.00 0.00 87 1006.5
20260505074927 71 160 1.7 2.6 0.00 0.00 0.00 86 1006.4
20260505074424 71 191 4.3 6.1 0.00 0.00 0.00 86 1006.5
20260505073921 71 172 5.2 7.0 0.00 0.00 0.00 86 1006.7
20260505073419 71 170 2.6 4.3 0.00 0.00 0.00 86 1006.8
20260505072916 71 173 4.3 7.0 0.00 0.00 0.00 86 1006.9
20260505072412 72 169 2.6 4.3 0.00 0.00 0.00 85 1007.0
20260505071908 72 222 4.3 6.1 0.00 0.00 0.00 85 1006.9
20260505071404 72 179 6.1 7.8 0.00 0.00 0.00 85 1007.0
20260505070902 72 194 2.6 2.6 0.00 0.00 0.00 84 1006.7
20260505070358 72 163 2.6 4.3 0.00 0.00 0.00 84 1006.9
20260505065854 72 157 7.0 11.3 0.00 0.00 0.00 84 1007.1
20260505065351 72 158 7.0 9.6 0.00 0.00 0.00 83 1007.1
20260505064848 72 199 7.8 11.3 0.00 0.00 0.00 83 1007.2
20260505064345 72 214 9.6 14.8 0.00 0.00 0.00 83 1007.4
20260505063844 72 174 2.6 4.3 0.00 0.00 0.00 83 1007.2
20260505063339 72 181 4.3 7.8 0.00 0.00 0.00 83 1007.2
20260505062836 72 193 6.1 7.8 0.00 0.00 0.00 82 1007.3
20260505062333 72 178 4.3 6.1 0.00 0.00 0.00 82 1007.3
20260505061830 72 226 4.3 6.1 0.00 0.00 0.00 82 1007.3
20260505061328 72 166 3.5 5.2 0.00 0.00 0.00 82 1007.6
20260505060825 72 202 5.2 6.1 0.00 0.00 0.00 81 1007.3
20260505060322 72 153 3.5 5.2 0.00 0.00 0.00 81 1007.4
20260505055818 72 201 1.7 2.6 0.00 0.00 0.00 81 1007.4
20260505055314 72 204 5.2 7.0 0.00 0.00 0.00 81 1007.7
20260505054812 73 152 2.6 4.3 0.00 0.00 0.00 80 1007.4
20260505054309 73 178 2.6 2.6 0.00 0.00 0.00 80 1007.5
20260505053807 73 155 5.2 7.0 0.00 0.00 0.00 80 1007.6
20260505053303 73 189 4.3 5.2 0.00 0.00 0.00 80 1007.7
20260505052800 73 180 2.6 2.6 0.00 0.00 0.00 79 1007.8
20260505052257 73 235 4.3 4.3 0.00 0.00 0.00 79 1007.8
20260505051754 73 212 6.1 7.0 0.00 0.00 0.00 79 1007.8
20260505051252 73 117 4.3 7.8 0.00 0.00 0.00 78 1007.9
20260505050750 73 170 6.1 8.7 0.00 0.00 0.00 78 1007.8
20260505050248 73 216 5.2 7.8 0.00 0.00 0.00 78 1008.0
20260505041718 74 174 5.2 6.1 0.00 0.00 0.00 75 1008.1
20260505041215 74 163 3.5 4.3 0.00 0.00 0.00 75 1008.1
20260505040712 74 170 4.3 6.1 0.00 0.00 0.00 75 1007.9
20260505040204 74 193 2.6 2.6 0.00 0.00 0.00 74 1008.0
20260505035700 74 155 7.0 9.6 0.00 0.00 0.00 74 1008.0
20260505035156 74 83 1.7 4.3 0.00 0.00 0.00 74 1007.9
20260505034653 74 169 6.1 7.0 0.00 0.00 0.00 74 1007.8
20260505034151 75 189 2.6 2.6 0.00 0.00 0.00 74 1007.6
20260505033646 75 193 2.6 2.6 0.00 0.00 0.00 73 1007.7
20260505033145 75 174 6.1 8.7 0.00 0.00 0.00 73 1008.0
20260505032643 75 154 4.3 6.1 0.00 0.00 0.00 73 1007.9
20260505032138 75 160 1.7 1.7 0.00 0.00 0.00 73 1007.8
20260505031636 75 121 4.3 5.2 0.00 0.00 0.00 73 1008.0
20260505031132 75 215 1.7 2.6 0.00 0.00 0.00 73 1007.9
20260505030629 75 149 5.2 7.0 0.00 0.00 0.00 72 1007.9
20260505030125 75 173 1.7 1.7 0.00 0.00 0.00 72 1007.8
20260505025620 75 182 0.9 0.9 0.00 0.00 0.00 72 1008.1
20260505025120 75 219 3.5 5.2 0.00 0.00 0.00 72 1008.0
20260505024617 75 173 1.7 4.3 0.00 0.00 0.00 72 1007.9
20260505024114 75 182 2.6 2.6 0.00 0.00 0.00 72 1008.0
20260505023611 75 194 4.3 6.1 0.00 0.00 0.00 71 1007.8
20260505023109 75 168 2.6 2.6 0.00 0.00 0.00 72 1007.5
20260505022606 75 153 2.6 4.3 0.00 0.00 0.00 72 1007.5
20260505022103 75 198 2.6 4.3 0.00 0.00 0.00 71 1007.9
20260505021559 75 173 1.7 1.7 0.00 0.00 0.00 71 1007.7
20260505021056 76 149 3.5 5.2 0.00 0.00 0.00 71 1007.7
20260505020556 76 175 5.2 6.1 0.00 0.00 0.00 70 1007.7
20260505020053 76 202 6.1 8.7 0.00 0.00 0.00 71 1007.6
20260505015550 76 212 3.5 5.2 0.00 0.00 0.00 70 1007.8
20260505015047 76 143 2.6 6.1 0.00 0.00 0.00 70 1007.8
20260505014544 76 195 2.6 6.1 0.00 0.00 0.00 70 1007.6
20260505014041 76 167 1.7 2.6 0.00 0.00 0.00 69 1007.6
20260505013538 76 188 2.6 7.0 0.00 0.00 0.00 69 1007.8
20260505013036 76 172 5.2 7.8 0.00 0.00 0.00 69 1007.8
20260505012533 76 201 6.1 8.7 0.00 0.00 0.00 69 1007.9
20260505012030 77 171 1.7 2.6 0.00 0.00 0.00 68 1007.7
20260505011526 77 175 6.1 7.8 0.00 0.00 0.00 68 1007.6
20260505011023 77 190 5.2 7.0 0.00 0.00 0.00 68 1007.9
20260505010518 77 177 2.6 2.6 0.00 0.00 0.00 68 1007.6
20260505010015 77 176 6.1 8.7 0.00 0.00 0.00 67 1007.6
20260505005512 77 180 7.8 9.6 0.00 0.00 0.00 67 1007.5
20260505005009 77 159 6.1 8.7 0.00 0.00 0.00 67 1007.6
20260505004506 77 172 5.2 7.8 0.00 0.00 0.00 67 1007.7
20260505004003 77 174 2.6 2.6 0.00 0.00 0.00 66 1007.9
20260505003500 78 195 6.1 8.7 0.00 0.00 0.00 66 1008.0
20260505002956 78 177 4.3 7.0 0.00 0.00 0.00 66 1007.8
20260505002452 78 224 5.2 7.0 0.00 0.00 0.00 65 1007.8
20260505001951 78 103 7.8 9.6 0.00 0.00 0.00 65 1007.7
20260505001448 78 181 4.3 6.1 0.00 0.00 0.00 64 1008.0
20260505000945 78 199 3.5 5.2 0.00 0.00 0.00 64 1007.8
20260505000443 78 176 2.6 2.6 0.00 0.00 0.00 64 1007.8
20260504235940 78 226 7.8 12.2 0.00 0.00 0.00 64 1007.8
20260504235437 79 184 4.3 9.6 0.00 0.00 0.00 64 1007.9
20260504234933 79 186 9.6 15.6 0.00 0.00 0.00 64 1008.1
20260504234431 79 214 4.3 6.1 0.00 0.00 0.00 64 1008.2
20260504233927 79 234 5.2 7.8 0.00 0.00 0.00 63 1008.0
20260504233423 79 151 6.1 8.7 0.00 0.00 0.00 63 1008.2
20260504232920 79 180 4.3 5.2 0.00 0.00 0.00 62 1008.1
20260504232417 79 175 5.2 7.0 0.00 0.00 0.00 62 1008.1
20260504231914 79 179 4.3 7.0 0.00 0.00 0.00 62 1008.0
20260504231410 79 181 8.7 11.3 0.00 0.00 0.00 62 1008.4
20260504230907 80 154 3.5 4.3 0.00 0.00 0.00 61 1008.4
20260504230404 80 201 7.8 11.3 0.00 0.00 0.00 60 1008.5
20260504225903 81 178 3.5 7.0 0.00 0.00 0.00 60 1008.4
20260504225359 80 183 4.3 6.1 0.00 0.00 0.00 60 1008.4
20260504224856 80 169 2.6 5.2 0.00 0.00 0.00 60 1008.6
20260504224352 81 177 9.6 13.9 0.00 0.00 0.00 60 1008.6
20260504223849 80 166 7.0 8.7 0.00 0.00 0.00 60 1008.6
20260504223345 81 166 7.8 9.6 0.00 0.00 0.00 60 1008.5
20260504222842 80 214 3.5 4.3 0.00 0.00 0.00 61 1008.4
20260504222338 80 209 3.5 7.0 0.00 0.00 0.00 61 1008.6
20260504221837 80 204 8.7 11.3 0.00 0.00 0.00 60 1008.7
20260504221333 80 196 4.3 9.6 0.00 0.00 0.00 60 1008.7
20260504220831 81 197 3.5 4.3 0.00 0.00 0.00 59 1008.9
20260504220327 81 185 7.8 13.9 0.00 0.00 0.00 58 1009.0
20260504215825 81 152 7.8 9.6 0.00 0.00 0.00 58 1009.1
20260504215321 81 162 2.6 4.3 0.00 0.00 0.00 58 1008.9
20260504214817 81 205 8.7 13.0 0.00 0.00 0.00 58 1009.0
20260504214314 81 175 2.6 4.3 0.00 0.00 0.00 58 1009.2
20260504213810 81 222 11.3 19.1 0.00 0.00 0.00 58 1009.4
20260504213306 82 209 5.2 9.6 0.00 0.00 0.00 57 1009.0
20260504212804 82 155 6.1 9.6 0.00 0.00 0.00 56 1009.2
20260504212300 82 142 3.5 7.0 0.00 0.00 0.00 57 1009.3
20260504211758 81 148 10.4 13.9 0.00 0.00 0.00 57 1009.6
20260504211254 81 204 5.2 7.8 0.00 0.00 0.00 58 1009.6
20260504210751 81 179 7.8 11.3 0.00 0.00 0.00 57 1009.5
20260504210248 82 144 5.2 7.0 0.00 0.00 0.00 57 1009.5
20260504205745 81 188 6.1 8.7 0.00 0.00 0.00 57 1009.9
20260504205243 81 186 6.1 7.8 0.00 0.00 0.00 57 1009.8
20260504204741 81 96 4.3 7.0 0.00 0.00 0.00 57 1010.2
20260504204239 81 189 9.6 11.3 0.00 0.00 0.00 56 1009.9
20260504203738 81 158 4.3 7.0 0.00 0.00 0.00 56 1010.1
20260504203235 81 250 3.5 5.2 0.00 0.00 0.00 56 1010.0
20260504202735 82 177 4.3 5.2 0.00 0.00 0.00 56 1010.4
20260504202233 82 174 6.1 7.8 0.00 0.00 0.00 56 1010.4
20260504201730 82 197 8.7 12.2 0.00 0.00 0.00 54 1010.7
20260504201227 81 185 3.5 4.3 0.00 0.00 0.00 55 1010.6
20260504200725 81 194 7.0 9.6 0.00 0.00 0.00 55 1011.0
20260504200220 81 195 1.7 1.7 0.00 0.00 0.00 54 1011.2
20260504195717 80 158 9.6 11.3 0.00 0.00 0.00 55 1011.1
20260504195213 80 209 1.7 1.7 0.00 0.00 0.00 56 1011.1
20260504194710 81 203 6.1 7.8 0.00 0.00 0.00 54 1011.2
20260504194206 82 174 2.6 4.3 0.00 0.00 0.00 54 1011.3
20260504193702 80 180 6.1 11.3 0.00 0.00 0.00 54 1011.5
20260504193200 80 198 6.1 9.6 0.00 0.00 0.00 54 1011.4
20260504192658 80 196 1.7 2.6 0.00 0.00 0.00 55 1011.5
20260504192156 81 246 4.3 7.0 0.00 0.00 0.00 53 1011.7
20260504191654 81 189 0.9 1.7 0.00 0.00 0.00 54 1011.7
20260504191150 81 149 3.5 7.0 0.00 0.00 0.00 54 1012.0
20260504190646 80 221 2.6 4.3 0.00 0.00 0.00 55 1011.8
20260504190143 80 203 5.2 7.0 0.00 0.00 0.00 54 1012.2
20260504185639 80 202 3.5 4.3 0.00 0.00 0.00 54 1011.9
20260504185136 80 214 1.7 2.6 0.00 0.00 0.00 54 1011.9
20260504184632 81 146 4.3 5.2 0.00 0.00 0.00 53 1012.0
20260504184127 80 169 4.3 7.0 0.00 0.00 0.00 53 1012.1
20260504183624 79 181 7.8 9.6 0.00 0.00 0.00 53 1012.1
20260504183122 79 207 8.7 11.3 0.00 0.00 0.00 53 1012.3
20260504182620 79 84 3.5 5.2 0.00 0.00 0.00 52 1012.3
20260504182117 79 200 7.0 13.0 0.00 0.00 0.00 52 1012.4
20260504181614 79 200 2.6 5.2 0.00 0.00 0.00 50 1012.7
20260504181111 79 154 5.2 7.8 0.00 0.00 0.00 51 1012.4
20260504180611 79 131 4.3 5.2 0.00 0.00 0.00 51 1012.5
20260504180109 79 190 5.2 7.8 0.00 0.00 0.00 50 1012.3
20260504175606 79 148 11.3 13.0 0.00 0.00 0.00 50 1012.6
20260504175103 78 146 5.2 7.8 0.00 0.00 0.00 50 1012.8
20260504174601 78 134 3.5 7.8 0.00 0.00 0.00 50 1013.1
20260504174057 78 251 2.6 2.6 0.00 0.00 0.00 50 1013.1
20260504173554 78 176 1.7 4.3 0.00 0.00 0.00 51 1013.0
20260504173052 77 189 6.1 11.3 0.00 0.00 0.00 50 1013.1
20260504172547 78 209 6.1 7.0 0.00 0.00 0.00 49 1013.1
20260504172044 76 218 6.1 7.8 0.00 0.00 0.00 52 1012.9
20260504171541 78 148 6.1 7.0 0.00 0.00 0.00 50 1013.2
20260504171038 77 155 4.3 6.1 0.00 0.00 0.00 51 1013.5
20260504170534 76 179 2.6 4.3 0.00 0.00 0.00 52 1013.5
20260504150918 70 169 4.3 5.2 0.00 0.00 0.00 64 1014.7
20260504150414 70 203 6.1 7.8 0.00 0.00 0.00 65 1014.7
20260504140841 68 180 6.1 7.8 0.00 0.00 0.00 70 1015.3
20260504140337 67 189 4.3 5.2 0.00 0.00 0.00 70 1015.1
20260504130806 65 159 7.0 9.6 0.00 0.00 0.00 74 1015.3
20260504130302 64 181 3.5 5.2 0.00 0.00 0.00 74 1015.2